Tracking 19800 objects as of 23-Jul-2019
HD Live streaming from Space Station
objects crossing your sky now

GLOBALSTAR M055

Track GLOBALSTAR M055 now!
10-day predictions
GLOBALSTAR M055 is classified as:


NORAD ID: 25910
Int'l Code: 1999-049D
Perigee: 1,553.7 km
Apogee: 1,564.8 km
Inclination: 52.0 °
Period: 117.1 minutes
Semi major axis: 7930 km
RCS: 2.0613 m2 (large)
Launch date: September 22, 1999
Source: Globalstar (GLOB)
Launch site: TYURATAM MISSILE AND SPACE COMPLEX (TTMTR)
aabbcc
Your satellite tracking list
Your tracking list is empty




NASA's NSSDC Master Catalog

Two Line Element Set (TLE):
1 25910U 99049D   19203.83192008 -.00000095  00000-0 -55966-5 0  9996
2 25910  52.0032  51.9008 0007005 338.7892  21.2668 12.29347401903286
Source of the keplerian elements: AFSPC